Location: Unspecified
(42.2600°N, 0.0000°E)
Time: 03:16:07
(UTC+00:00)

ISS - Pass Details

Date: 03 June 2019
Orbit: 408 x 418 km, 51.6° (Epoch: 16 June)

Event Time Altitude Azimuth Distance (km) Brightness Sun altitude
Rises 20:24:35 0° 305° (NW) 2,353 2.3 -8.8°
Reaches altitude 10° 20:26:41 10° 307° (NW) 1,490 0.7 -9.0°
Maximum altitude 20:30:01 75° 33° (NNE) 434 -3.7 -9.5°
Enters shadow 20:32:48 14° 119° (ESE) 1,263 -2.0 -9.9°
